Flag for Portugal Weather past 2 weeks in Braga, Portugal

Now
41 °F

Quite cool.


Feels Like: 39 °F
Forecast: 39 / 55 °F
Wind: 3 mph from East

Location: Porto / Pedras Rubras

Current Time: Dec 18, 2014 at 9:03:44 AM

Latest Report: Dec 18, 2014 at 8:00 AM


Visibility: N/A

Pressure: 30.46 "Hg

Humidity: 89%

Dew point: 38 °F

Location of BragaLocation

Historic Weather in Braga — Graph

°F

Braga temperature yesterday

Maximum temperature yesterday: 58 °F (at 12:00 PM)
Minimum temperature yesterday: 46 °F (at 11:00 PM)
Average temperature yesterday: 53 °F

Past Weeks' High & Low Weather Summary

 TemperatureHumidityPressure
High59 °F (Dec 3, 1:00 PM)93% (Dec 16, 3:00 AM)30.59 "Hg (Dec 16, 3:00 AM)
Low38 °F (Dec 10, 5:00 AM)41% (Dec 6, 2:00 PM)29.72 "Hg (Dec 13, 2:00 AM)
Average49 °F77%30.26 "Hg
* Reported Dec 3 7:00 AM — Dec 18 7:00 AM, Braga, Weather by CustomWeather, © 2014

Note: Actual official high and low records may vary slightly from our data, if they occured in-between our weather recording intervals... More about our weather records

Advertising

Braga weather history for previous 24 hours

 ConditionsComfort  
Time TempWeatherWind HumidityBarometerVisibility
7:00 AM
Dec 18
41 °FQuite cool.5 mph88%30.45 "HgN/A
6:00 AM43 °FQuite cool.2 mph87%30.44 "HgN/A
5:00 AM44 °FQuite cool.2 mph87%30.44 "HgN/A
4:00 AM45 °FCool.2 mph82%30.44 "HgN/A
2:00 AM47 °FCool.2 mph83%30.43 "HgN/A
1:00 AM47 °FCool.3 mph84%30.44 "HgN/A
12:00 AM46 °FCool.2 mph86%30.45 "HgN/A
11:00 PM
Dec 17
46 °FCool.2 mph85%30.45 "HgN/A
10:00 PM47 °FCool.3 mph83%30.44 "HgN/A
9:00 PM48 °FCool.3 mph81%30.45 "HgN/A
8:00 PM50 °FCool.6 mph77%30.44 "HgN/A
7:00 PM51 °FCool.6 mph75%30.43 "HgN/A
6:00 PM51 °FCool.3 mph75%30.42 "HgN/A
5:00 PM53 °FCool.5 mph71%30.41 "HgN/A
4:00 PM56 °FCool.7 mph66%30.40 "HgN/A
3:00 PM57 °FCool.8 mph66%30.39 "HgN/A
2:00 PM58 °FCool.8 mph63%30.39 "HgN/A
1:00 PM58 °FCool.7 mph64%30.41 "HgN/A
12:00 PM58 °FCool.6 mph62%30.42 "HgN/A
11:00 AM57 °FCool.6 mph67%30.43 "HgN/A
10:00 AM55 °FCool.5 mph72%30.42 "HgN/A
9:00 AM52 °FCool.5 mph83%30.41 "HgN/A
Weather by CustomWeather, © 2014

See weather overviewHow to use our weather pages